Tacoma Narrows, WA
on Monday, November 19, 2012

Monday
Previous Day Next Day
Daily Summary
 ActualAverageRecord
Temperature
Mean Temperature °F / °C °F / °C  
Max Temperature 55°F / 13°C 48°F / 8°C 55°F / 12°C (2001)
Min Temperature 48°F / 9°C 39°F / 3°C 30°F / -1°C (2011)
Degree Days
Heating Degree Days 14    
Growing Degree Days2 (Base °F / °C )  
Moisture
Dew Point 47°F / 8°C   
Average Humidity 87    
Maximum Humidity 100    
Minimum Humidity 75    
Precipitation
Precipitation 2.18 in / 55.37 cm in / cm in / cm ()
Wind
Wind Speed 8 mph / 13 km/h   
Max Wind Speed 28 mph / 45 km/h   
Max Gust Speed 39 mph / 63 km/h   
Visibility 6 miles / 9 kilometers   
Events Rain   
Averages and records for this station are not official NWS values.
Key: T is trace of precipitation, MM is missing value
Source: NWS Daily Summary
Seasonal Weather Averages
Time(PST)TemperatureDew PointHumidity Pressure Visibility Wind DirectionWind SpeedGust SpeedPrecipitationEvents Conditions
12:53 AM 48.0°F / 8.9°C 42.1°F / 5.6°C 80% 29.57 in / 1001.3 hPa 10.0 miles / 16.1 kilometers SSE 6.9 mph / 11.1 km/h - N/A   Overcast
1:53 AM 48.9°F / 9.4°C 43.0°F / 6.1°C 80% 29.55 in / 1000.7 hPa 10.0 miles / 16.1 kilometers South 11.5 mph / 18.5 km/h 18.4 mph / 29.6 km/h 0.00 in / 0.0 cm   Overcast
2:53 AM 48.9°F / 9.4°C 44.1°F / 6.7°C 83% 29.56 in / 1000.8 hPa 10.0 miles / 16.1 kilometers SSW 10.4 mph / 16.7 km/h - 0.01 in / 0.3 cm Rain Light Rain
3:53 AM 48.0°F / 8.9°C 45.0°F / 7.2°C 89% 29.57 in / 1001.2 hPa 5.0 miles / 8.0 kilometers South 8.1 mph / 13.0 km/h - 0.10 in / 2.5 cm Rain Rain
4:46 AM 48.2°F / 9.0°C 44.6°F / 7.0°C 87% 29.54 in / 1000.2 hPa 7.0 miles / 11.3 kilometers SE 3.5 mph / 5.6 km/h - 0.17 in / 4.3 cm Rain Light Rain
4:53 AM 48.0°F / 8.9°C 45.0°F / 7.2°C 89% 29.55 in / 1000.4 hPa 6.0 miles / 9.7 kilometers SE 3.5 mph / 5.6 km/h - 0.19 in / 4.8 cm Rain Light Rain
5:26 AM 48.2°F / 9.0°C 44.6°F / 7.0°C 87% 29.52 in / 999.5 hPa 4.0 miles / 6.4 kilometers ESE 4.6 mph / 7.4 km/h - 0.13 in / 3.3 cm Rain Rain
5:53 AM 48.0°F / 8.9°C 46.0°F / 7.8°C 93% 29.51 in / 999.1 hPa 4.0 miles / 6.4 kilometers Calm Calm - 0.26 in / 6.6 cm Rain Rain
6:07 AM 48.2°F / 9.0°C 46.4°F / 8.0°C 93% 29.51 in / 999.2 hPa 4.0 miles / 6.4 kilometers Calm Calm - 0.06 in / 1.5 cm Rain Rain
6:44 AM 48.2°F / 9.0°C 46.4°F / 8.0°C 93% 29.46 in / 997.5 hPa 6.0 miles / 9.7 kilometers ENE 5.8 mph / 9.3 km/h - 0.21 in / 5.3 cm Rain Light Rain
6:53 AM 48.9°F / 9.4°C 46.0°F / 7.8°C 90% 29.47 in / 997.7 hPa 6.0 miles / 9.7 kilometers Variable 4.6 mph / 7.4 km/h - 0.24 in / 6.1 cm Rain Rain
7:28 AM 50.0°F / 10.0°C 46.4°F / 8.0°C 87% 29.45 in / 997.2 hPa 5.0 miles / 8.0 kilometers South 8.1 mph / 13.0 km/h - 0.15 in / 3.8 cm Rain Rain
7:42 AM 48.2°F / 9.0°C 46.4°F / 8.0°C 93% 29.47 in / 997.9 hPa 2.5 miles / 4.0 kilometers NW 5.8 mph / 9.3 km/h - 0.24 in / 6.1 cm Rain Rain
7:53 AM 48.9°F / 9.4°C 46.9°F / 8.3°C 93% 29.46 in / 997.6 hPa 2.0 miles / 3.2 kilometers NNW 3.5 mph / 5.6 km/h - 0.33 in / 8.4 cm Rain Heavy Rain
8:08 AM 48.2°F / 9.0°C 46.4°F / 8.0°C 93% 29.45 in / 997.2 hPa 2.5 miles / 4.0 kilometers Calm Calm - 0.09 in / 2.3 cm Rain Rain
8:39 AM 48.2°F / 9.0°C 46.4°F / 8.0°C 93% 29.44 in / 996.8 hPa 2.0 miles / 3.2 kilometers NNE 3.5 mph / 5.6 km/h - 0.26 in / 6.6 cm Rain Rain
8:46 AM 48.2°F / 9.0°C 48.2°F / 9.0°C 100% 29.44 in / 996.8 hPa 2.0 miles / 3.2 kilometers Calm Calm - 0.29 in / 7.4 cm Rain Rain
8:53 AM 48.9°F / 9.4°C 48.0°F / 8.9°C 97% 29.44 in / 996.9 hPa 2.0 miles / 3.2 kilometers NNE 3.5 mph / 5.6 km/h - 0.32 in / 8.1 cm Rain Rain
8:59 AM 48.2°F / 9.0°C 46.4°F / 8.0°C 93% 29.44 in / 996.8 hPa 1.8 miles / 2.8 kilometers Calm Calm - 0.03 in / 0.8 cm Rain Rain
9:12 AM 48.2°F / 9.0°C 48.2°F / 9.0°C 100% 29.43 in / 996.5 hPa 3.0 miles / 4.8 kilometers Calm Calm - 0.06 in / 1.5 cm Rain Light Rain
9:18 AM 48.2°F / 9.0°C 48.2°F / 9.0°C 100% 29.43 in / 996.5 hPa 2.0 miles / 3.2 kilometers Calm Calm - 0.07 in / 1.8 cm Rain Light Rain
9:53 AM 52.0°F / 11.1°C 48.9°F / 9.4°C 89% 29.39 in / 995.3 hPa 2.0 miles / 3.2 kilometers SSE 5.8 mph / 9.3 km/h - 0.11 in / 2.8 cm Rain Light Rain
10:00 AM 51.8°F / 11.0°C 48.2°F / 9.0°C 88% 29.39 in / 995.1 hPa 7.0 miles / 11.3 kilometers SSE 8.1 mph / 13.0 km/h - 0.01 in / 0.3 cm Rain Light Rain
10:18 AM 53.6°F / 12.0°C 48.2°F / 9.0°C 82% 29.38 in / 994.8 hPa 7.0 miles / 11.3 kilometers South 16.1 mph / 25.9 km/h 23.0 mph / 37.0 km/h 0.03 in / 0.8 cm Rain Light Rain
10:53 AM 55.0°F / 12.8°C 48.9°F / 9.4°C 80% 29.38 in / 994.8 hPa 10.0 miles / 16.1 kilometers South 18.4 mph / 29.6 km/h 27.6 mph / 44.4 km/h 0.03 in / 0.8 cm Rain Light Rain
11:53 AM 55.0°F / 12.8°C 50.0°F / 10.0°C 83% 29.37 in / 994.3 hPa 7.0 miles / 11.3 kilometers South 21.9 mph / 35.2 km/h 32.2 mph / 51.9 km/h 0.05 in / 1.3 cm Rain Light Rain
12:53 PM 54.0°F / 12.2°C 50.0°F / 10.0°C 86% 29.40 in / 995.4 hPa 2.5 miles / 4.0 kilometers South 27.6 mph / 44.4 km/h 39.1 mph / 63.0 km/h 0.15 in / 3.8 cm Rain Rain
1:00 PM 53.6°F / 12.0°C 51.8°F / 11.0°C 94% 29.42 in / 996.2 hPa 2.5 miles / 4.0 kilometers SSW 21.9 mph / 35.2 km/h 39.1 mph / 63.0 km/h 0.03 in / 0.8 cm Rain Rain
1:10 PM 53.6°F / 12.0°C 51.8°F / 11.0°C 94% 29.42 in / 996.2 hPa 3.0 miles / 4.8 kilometers SSW 15.0 mph / 24.1 km/h 29.9 mph / 48.2 km/h 0.07 in / 1.8 cm Rain Light Rain
1:17 PM 53.6°F / 12.0°C 50.0°F / 10.0°C 88% 29.43 in / 996.5 hPa 5.0 miles / 8.0 kilometers SSW 19.6 mph / 31.5 km/h 27.6 mph / 44.4 km/h 0.08 in / 2.0 cm Rain Light Rain
1:53 PM 54.0°F / 12.2°C 46.0°F / 7.8°C 75% 29.43 in / 996.4 hPa 10.0 miles / 16.1 kilometers South 24.2 mph / 38.9 km/h 34.5 mph / 55.6 km/h 0.14 in / 3.6 cm   Overcast
2:53 PM 54.0°F / 12.2°C 46.0°F / 7.8°C 75% 29.44 in / 996.7 hPa 10.0 miles / 16.1 kilometers South 13.8 mph / 22.2 km/h 21.9 mph / 35.2 km/h 0.00 in / 0.0 cm   Mostly Cloudy
3:24 PM 53.6°F / 12.0°C 48.2°F / 9.0°C 82% 29.43 in / 996.5 hPa 2.5 miles / 4.0 kilometers SSW 15.0 mph / 24.1 km/h 29.9 mph / 48.2 km/h 0.11 in / 2.8 cm Rain Rain
3:26 PM 53.6°F / 12.0°C 48.2°F / 9.0°C 82% 29.43 in / 996.5 hPa 3.0 miles / 4.8 kilometers SSW 16.1 mph / 25.9 km/h 29.9 mph / 48.2 km/h 0.11 in / 2.8 cm Rain Light Rain
3:53 PM 53.1°F / 11.7°C 48.0°F / 8.9°C 83% 29.44 in / 997.0 hPa 3.0 miles / 4.8 kilometers South 12.7 mph / 20.4 km/h - 0.14 in / 3.6 cm Rain Light Rain
4:53 PM 55.0°F / 12.8°C 48.0°F / 8.9°C 77% 29.46 in / 997.5 hPa 10.0 miles / 16.1 kilometers South 23.0 mph / 37.0 km/h 33.4 mph / 53.7 km/h 0.02 in / 0.5 cm Rain Light Rain
5:53 PM 53.1°F / 11.7°C 48.9°F / 9.4°C 86% 29.51 in / 999.2 hPa 10.0 miles / 16.1 kilometers SSW 10.4 mph / 16.7 km/h - 0.09 in / 2.3 cm   Overcast
5:54 PM 53.6°F / 12.0°C 48.2°F / 9.0°C 82% 29.51 in / 999.2 hPa 10.0 miles / 16.1 kilometers SSW 11.5 mph / 18.5 km/h - N/A   Mostly Cloudy
6:53 PM 52.0°F / 11.1°C 48.0°F / 8.9°C 86% 29.55 in / 1000.7 hPa 10.0 miles / 16.1 kilometers SW 6.9 mph / 11.1 km/h - N/A   Mostly Cloudy
7:53 PM 50.0°F / 10.0°C 44.1°F / 6.7°C 80% 29.60 in / 1002.1 hPa 10.0 miles / 16.1 kilometers South 8.1 mph / 13.0 km/h - N/A   Scattered Clouds
8:53 PM 50.0°F / 10.0°C 43.0°F / 6.1°C 77% 29.63 in / 1003.2 hPa 10.0 miles / 16.1 kilometers SSW 5.8 mph / 9.3 km/h - N/A   Clear
9:53 PM 50.0°F / 10.0°C 46.0°F / 7.8°C 86% 29.66 in / 1004.3 hPa 10.0 miles / 16.1 kilometers SSE 5.8 mph / 9.3 km/h - N/A   Mostly Cloudy
10:53 PM 50.0°F / 10.0°C 46.0°F / 7.8°C 86% 29.67 in / 1004.5 hPa 10.0 miles / 16.1 kilometers South 11.5 mph / 18.5 km/h - 0.00 in / 0.0 cm   Mostly Cloudy
11:53 PM 48.9°F / 9.4°C 46.0°F / 7.8°C 90% 29.70 in / 1005.6 hPa 10.0 miles / 16.1 kilometers Calm Calm - N/A   Mostly Cloudy
Moon Phase
Nov. 19 Nov. 20 Nov. 28 Dec. 06 Dec. 13
Sunrise:07:21 AM (PST) Moon Rise:12:17 PM (PST)11/19
Sunset:04:30 PM (PST) Moon Set:11:14 PM (PST)11/19

Copyright © 2014 The Weather Underground, Inc.